Tracking 28790 objects as of 18-Apr-2024
HD Live streaming from Space Station
objects crossing your sky now

SL-14 DEB

Track SL-14 DEB now!
10-day predictions


NORAD ID: 25227
Int'l Code: 1987-068BE
Perigee: 785.1 km
Apogee: 811.7 km
Inclination: 82.5 °
Period: 100.7 minutes
Semi major axis: 7169 km
RCS: 0.0052 m2 (small)
Launch date: August 18, 1987
Source: Commonwealth of Independent States (former USSR) (CIS)
Launch site: PLESETSK MISSILE AND SPACE COMPLEX (PKMTR)

Note: This is SATELLITE DEBRIS
Your satellite tracking list
Your tracking list is empty




NASA's NSSDC Master Catalog

Two Line Element Set (TLE):
1 25227U 87068BE  24109.15697670  .00019837  00000-0  76329-2 0  9991
2 25227  82.5266 253.1215 0018579 204.5132 155.5173 14.30149518343503
Source of the keplerian elements: AFSPC